Regional Weather Roundup
Issued by NWS State College, PA

Home | Current Version | Previous Version | Graphics & Text | Print | Product List | Glossary Off
Versions: 1 2 3 4 5 6 7 8 9 10 11 12 13 14 15 16 17 18 19 20 21 22 23 24 25 26 27 28 29 30 31 32 33 34 35 36 37 38 39 40 41 42 43 44 45 46 47 48 49 50

000
ASUS41 KCTP 221803
RWRCTP

REGIONAL WEATHER ROUNDUP
NATIONAL WEATHER SERVICE STATE COLLEGE PA
100 PM EST WED FEB 22 2017

Note: "fair" indicates few or no clouds below 12,000 feet with no
significant weather and/or obstructions to visibility.

* = STATION THAT DOES NOT REPORT PRECIPITATION /E.G. RAIN...SNOW...ETC/
    THUNDER OR FOG.

PAZ002>004-007>009-013>016-020>023-029>032-221900-
WESTERN PENNSYLVANIA

CITY           SKY/WX    TMP DP  RH WIND       PRES   REMARKS
ERIE           CLOUDY    59  52  77 SW9       29.86F
MEADVILLE      LGT RAIN  54  52  93 S7        29.88F FOG
FRANKLIN*      CLOUDY    54  52  94 SW9       29.90F
NEW CASTLE     LGT RAIN  56  53  90 S3        29.90F
BEAVER COUNTY  LGT RAIN  57  48  72 W6        29.90F
BUTLER*        CLOUDY    61  46  59 SW8       29.91F
PITTSBURGH INT CLOUDY    61  48  62 SW7       29.90F
PITTSBURGH     CLOUDY    63  46  54 SW6       29.90F
INDIANA*       CLOUDY    61  46  59 W9        29.93F
LATROBE        PTSUNNY   63  45  51 SW16      29.92F
WASHINGTON CO* CLOUDY    61  48  63 SW5       29.92F
$$

PAZ004>006-010>012-017>019-024>028-033>037-041-042-045-046-049>053-221900-
CENTRAL PENNSYLVANIA

CITY           SKY/WX    TMP DP  RH WIND       PRES   REMARKS
BRADFORD       LGT RAIN  53  49  86 SW8       29.90S FOG
DUBOIS         CLOUDY    61  42  49 W7        29.89F
CLEARFIELD       N/A    N/A N/A N/A MISG      29.90F
JOHNSTOWN      CLOUDY    59  43  55 W7        29.91F
ALTOONA        CLOUDY    62  45  53 SW8       29.91F
STATE COLLEGE  PTSUNNY   55  39  54 CALM      29.89F
WILLIAMSPORT   CLOUDY    53  35  50 E5        29.92F
SELINSGROVE    CLOUDY    51  38  60 SE6       29.94F
FT INDIANTOWN  MOSUNNY   53  40  61 SE3       29.94F
CAPITAL CITY   MOSUNNY   59  38  45 E3        29.94F
HARRISBURG     CLOUDY    57  40  52 E3        29.93F
YORK           CLOUDY    59  42  53 CALM      29.93F
$$

PAZ038>040-043-044-047-048-054-055-060>062-067>071-221900-
EASTERN PENNSYLVANIA

CITY           SKY/WX    TMP DP  RH WIND       PRES   REMARKS
SCRANTON       CLOUDY    51  39  63 SW3       29.92F
MOUNT POCONO   CLOUDY    47  39  74 CALM      29.92F
ALLENTOWN      PTSUNNY   53  37  54 CALM      29.94F
QUAKERTOWN*    MOCLDY    55  39  54 S5        29.94F
READING        MOSUNNY   55  41  59 CALM      29.93F
LANCASTER      SUNNY    N/A N/A N/A MISG      29.94F
COATESVILLE    PTCLDY    55  41  58 CALM      29.96F
POTTSTOWN      CLOUDY    54  39  57 S6        29.95F
BLUE BELL      CLOUDY    52  39  62 CALM      29.95F
DOYLESTOWN     PTSUNNY   55  40  56 CALM      29.94F
WILLOW GROVE   NOT AVBL
NORTH PHILA    PTSUNNY   54  42  64 SW5       29.98F
PHILADELPHIA   CLOUDY    55  42  61 VRB3      29.97F
$$




USA.gov is the U.S. government's official web portal to all federal, state and local government web resources and services.